Hourly Data Report for June 11, 2021

SANIRAJAK AIRPORT
NUNAVUT
Current Station Operator: NAVCAN

68°46'33.000" N
81°14'33.000" W
9.10 m
2402354
71293
YUX

Download Data

Hourly Data (June 2021)
Hourly Data Report for June 11, 2021
TIME
LST
Temp Definition
°C
Dew Point Definition
°C
Rel Hum Definition
%
Precip. Amount Definition
mm

Wind Dir Definition
10's deg

Wind Spd Definition
km/h
Visibility Definition
km
Stn Press Definition
kPa
Hmdx Definition


Wind Chill Definition


Weather Definition


00:00 -1.0 -1.8 94 0.0 32 41 16.1 101.23   -9 LegendNANA
01:00 -1.3 -2.1 94 0.0 32 41 16.1 101.25   -9 LegendNANA
02:00 -1.4 -2.2 94 0.0 32 41 16.1 101.26   -9 LegendNANA
03:00 -1.4 -2.2 94 0.0 32 39 16.1 101.28   -9 LegendNANA
04:00 -1.2 -2.3 92 0.0 32 37 16.1 101.31   -9 LegendNANA
05:00 -1.1 -2.4 91 0.0 32 35 16.1 101.31   -8 LegendNANA
06:00 -0.8 -2.1 91 0.0 32 37 16.1 101.32   -8 LegendNANA
07:00 0.1 -1.5 89 0.0 32 39 16.1 101.32     LegendNANA
08:00 0.6 -1.2 88 0.0 32 37 16.1 101.30     LegendNANA
09:00 1.0 -0.7 89 0.0 32 35 16.1 101.28     LegendNANA
10:00 1.3 -0.5 88 0.0 32 39 16.1 101.27     LegendNANA
11:00 1.4 -0.2 89 0.0 31 34 16.1 101.27     LegendNANA
12:00 1.5 -0.3 88 0.0 31 35 16.1 101.26     LegendNANA
13:00 1.5 -0.3 88 0.0 31 41 16.1 101.28     LegendNANA
14:00 1.7 -0.2 87 0.0 31 43 16.1 101.32     LegendNANA
15:00 1.7 -0.3 87 0.0 31 41 16.1 101.33     LegendNANA
16:00 1.5 -0.4 87 0.0 31 39 16.1 101.33     LegendNANA
17:00 1.6 -0.3 87 0.0 31 35 16.1 101.31     LegendNANA
18:00 1.6 -0.3 87 0.0 31 30 16.1 101.30     LegendNANA
19:00 1.6 -0.2 88 0.0 31 26 16.1 101.30     LegendNANA
20:00 1.1 -0.5 89 0.0 31 28 16.1 101.30     LegendNANA
21:00 0.7 -0.8 90 0.0 31 35 16.1 101.31     LegendNANA
22:00 0.3 -1.2 90 0.0 31 32 16.1 101.31     LegendNANA
23:00 -0.3 -1.4 92 0.0 31 35 16.1 101.26   -7 LegendNANA

Notes on Data Quality.

Legend

  • E = Estimated
  • M = Missing
  • NA = Not Available*
  • [empty] = Indicates an unobserved value
Date modified: